Theta_e
327 327 328 330 329 328 328 328 329 329 329 327 328 329 329 328 329 331 332 337 339 340 339 336 329 330 332 332 333 333 331 332 331 331 330 327 326 324 323 322 322 322 323 324
327 328 329 327 327 328 328 329 330 329 328 329 329 329 329 329 329 330 333 336 339 340 338 333 328 330 331 332 333 334 333 333 334 333 331 330 328 326 325 325 325 324 324 323
329 329 327 327 329 329 329 329 328 328 328 328 329 329 329 332 331 331 334 336 338 339 337 330 330 330 331 333 333 333 333 335 334 331 328 325 323 321 319 320 322 321 320 319
329 328 328 328 328 328 330 328 326 327 327 327 327 326 329 329 330 332 333 335 337 336 334 331 331 332 333 333 332 332 331 328 324 323 321 321 319 318 318 317 317 317 317 317
330 328 328 328 329 328 329 327 326 326 326 327 327 326 330 329 330 331 331 333 335 335 335 334 334 333 332 328 325 323 323 324 324 322 321 320 318 318 317 316 315 315 314 313
329 327 327 329 328 328 329 328 328 329 327 328 329 325 329 330 328 328 329 330 332 333 333 333 333 330 326 324 323 322 321 320 321 320 319 319 318 317 316 315 315 315 314 314
329 328 328 328 330 331 329 328 329 330 329 328 328 326 330 328 327 327 328 328 328 329 330 331 331 326 324 322 321 320 319 319 319 318 318 317 316 316 315 314 313 313 313 313
331 331 330 329 329 329 330 328 330 328 328 327 327 328 330 327 325 325 325 326 328 329 327 327 326 323 322 321 320 319 319 319 318 317 316 316 315 314 313 312 312 311 313 312
332 331 329 328 328 328 329 330 328 327 329 329 329 328 328 327 327 325 326 326 326 327 326 325 324 322 321 320 319 318 318 317 315 315 316 315 315 314 313 311 310 310 312 313
331 331 331 328 327 327 328 326 327 332 332 329 328 327 331 328 327 327 326 326 326 326 325 323 322 321 320 319 318 317 316 314 315 316 316 315 313 312 311 312 310 310 311 312
330 333 332 331 332 330 329 328 329 328 329 330 328 329 328 328 327 327 325 323 325 324 323 322 321 319 318 318 317 316 314 314 315 316 315 314 313 311 311 311 311 311 311 311
333 336 334 332 330 327 325 326 327 329 330 330 329 329 328 327 326 325 324 324 324 322 322 321 320 318 318 317 316 314 314 315 316 315 314 313 312 311 311 311 309 309 309 309
333 334 336 332 331 328 327 327 326 326 329 330 332 331 328 326 326 326 324 323 323 322 321 321 318 318 317 316 314 313 314 315 315 314 313 312 312 310 309 311 310 310 309 308
327 334 334 333 330 328 328 326 326 327 330 329 328 328 327 327 327 325 324 324 323 322 321 319 318 317 316 315 314 313 314 316 315 314 313 312 310 309 309 309 309 309 308 309
332 333 330 329 327 327 327 326 325 325 326 329 328 327 327 327 325 324 324 323 322 322 319 319 318 317 315 314 313 313 315 315 314 313 313 311 309 308 308 309 309 309 309 309
331 331 329 329 327 327 327 325 324 325 326 326 326 327 327 324 324 324 324 323 322 321 320 318 317 316 315 314 313 313 315 314 313 312 311 309 308 307 308 309 308 309 309 309
332 329 331 331 328 328 328 327 327 326 327 327 327 327 325 325 324 324 323 323 322 320 319 317 316 315 314 313 313 313 314 313 312 311 309 308 307 308 308 308 308 309 308 307
332 331 331 330 328 328 328 327 326 326 326 326 327 326 325 324 323 322 323 323 321 320 318 317 315 314 313 313 313 313 313 312 311 309 308 307 307 307 308 308 308 308 308 308
330 332 331 331 330 327 325 327 326 326 329 327 327 326 325 324 324 325 324 322 321 320 318 316 315 314 313 313 312 312 312 311 309 309 308 308 307 308 308 309 308 308 308 308
331 332 332 330 330 330 327 327 326 326 330 327 326 326 325 325 327 327 324 322 321 320 319 316 315 313 313 313 312 312 310 309 309 308 307 308 307 308 309 309 308 309 309 308
331 331 330 328 329 328 326 324 326 328 331 327 326 325 325 327 325 324 325 322 322 320 318 316 315 313 313 312 312 310 309 309 307 306 307 308 309 309 309 309 309 309 309 309
332 333 334 330 331 329 325 326 331 325 327 329 326 326 326 325 324 323 325 323 322 320 318 316 314 313 312 311 311 309 308 307 306 306 308 308 309 309 309 310 310 309 309 309
330 332 330 329 329 328 327 326 324 326 327 326 326 326 325 324 323 322 323 324 322 320 318 316 314 313 312 311 310 306 306 307 306 307 308 308 309 310 310 309 309 309 311 310
326 324 327 328 326 324 324 323 326 324 325 327 326 325 324 324 322 321 323 324 322 320 317 316 314 313 312 311 307 306 307 306 306 307 308 308 309 310 310 309 309 311 310 309
324 326 327 328 326 324 324 325 325 325 326 326 326 326 325 325 323 322 323 323 322 319 317 315 314 313 311 308 306 306 307 306 306 306 308 308 309 309 310 308 309 309 310 309
323 325 326 326 324 328 327 327 326 325 325 325 324 323 324 323 321 322 324 323 321 318 316 315 313 311 310 308 306 306 306 306 306 306 308 308 309 310 309 309 308 308 309 308
Wind_Speed
10 13 2 15 11 12 9 6 8 7 2 6 14 13 11 13 7 13 16 14 16 16 17 17 17 11 7 5 5 7 8 10 12 14 16 19 19 22 23 24 24 24 26 25
8 6 11 6 7 8 8 10 10 4 4 9 15 16 14 3 14 9 15 14 14 15 16 16 17 13 9 8 9 10 12 13 14 16 18 19 21 23 24 25 24 24 19 17
7 15 5 5 5 7 10 4 12 13 14 16 18 17 11 5 5 5 9 9 12 15 16 16 16 14 11 11 12 13 13 13 14 16 17 19 20 24 25 23 21 23 22 19
2 8 3 7 3 7 12 9 11 12 13 11 3 11 10 5 2 3 5 10 13 15 14 16 17 15 12 13 14 12 12 11 11 17 15 17 20 22 22 25 25 26 27 28
8 8 7 9 12 6 11 10 10 10 11 13 9 8 10 5 3 3 7 9 12 14 14 14 16 6 5 10 10 10 10 10 12 13 14 17 21 22 26 27 30 32 33 31
6 4 2 9 1 3 9 14 15 13 9 11 9 5 6 9 7 6 5 3 5 10 13 11 5 6 8 9 11 11 13 15 15 17 19 21 24 26 28 29 29 25 24 22
6 10 7 4 10 10 10 13 8 3 7 5 5 7 11 7 7 6 6 2 2 5 9 6 5 10 9 12 12 15 16 18 19 20 23 24 27 28 29 27 27 25 24 24
7 7 8 5 5 8 8 9 6 8 9 12 5 3 7 7 5 2 4 6 5 3 8 7 8 9 11 13 15 17 18 20 21 23 25 26 27 29 30 29 28 29 24 22
3 3 7 3 4 4 10 7 9 8 15 9 2 4 13 6 2 3 4 7 9 6 7 8 9 9 12 15 16 17 19 21 23 25 26 26 23 25 28 30 28 26 22 22
6 9 4 8 4 7 6 7 5 7 5 8 10 12 10 4 7 6 10 9 6 7 9 9 10 12 13 16 17 19 21 23 24 24 24 24 25 25 27 24 23 23 23 23
8 3 5 8 8 8 6 7 4 3 7 8 9 6 6 7 8 9 16 16 4 6 8 9 10 15 14 17 19 21 22 23 24 23 24 25 23 27 24 22 21 21 24 26
4 4 9 15 5 6 7 8 6 6 8 7 7 9 8 4 8 10 12 6 3 4 8 11 14 15 15 18 20 21 22 23 22 23 23 24 25 27 29 24 22 21 22 26
4 4 7 9 8 4 5 1 4 5 6 11 8 8 6 11 12 3 6 4 6 6 10 13 14 15 17 19 20 22 22 22 22 22 22 23 23 23 22 23 25 24 25 31
1 7 9 11 15 9 10 11 9 8 7 11 11 14 13 12 11 11 3 7 9 11 14 14 14 16 18 19 21 22 21 21 21 21 22 24 24 26 26 25 23 27 31 27
3 9 12 10 12 10 13 14 14 13 12 12 14 14 14 9 10 10 10 10 12 13 14 13 14 16 18 19 21 22 20 21 21 22 23 25 26 26 26 23 27 31 29 23
5 8 8 11 15 10 13 14 14 13 12 13 12 13 5 7 8 10 9 11 13 14 15 14 14 16 17 19 21 22 21 23 22 25 25 27 28 27 24 25 31 29 23 23
7 8 5 11 10 9 14 12 12 12 5 8 10 10 11 8 10 11 11 10 12 15 14 13 14 16 17 19 20 20 21 23 21 25 25 26 27 25 23 29 28 25 28 25
8 8 8 9 9 13 2 3 5 5 6 8 9 9 8 8 9 14 10 7 12 14 13 12 13 15 16 18 19 20 20 19 22 25 24 26 26 23 26 28 29 30 26 20
11 9 9 6 11 13 12 4 6 8 9 10 12 6 9 8 11 10 2 3 9 9 9 10 12 15 16 17 19 19 19 18 20 21 26 23 23 25 26 29 29 24 20 19
8 10 8 12 14 14 9 5 5 5 11 13 3 6 8 9 8 6 3 7 9 8 9 11 12 14 15 17 18 18 18 18 18 21 23 22 23 27 27 27 23 20 19 19
7 13 14 14 13 13 4 3 5 9 9 11 3 9 9 8 12 11 9 9 8 8 9 10 12 14 15 17 18 18 18 17 20 20 21 21 24 27 26 23 19 17 17 18
12 2 4 14 12 14 9 7 3 11 13 9 10 10 11 12 14 14 12 12 11 10 10 11 13 14 15 16 17 18 18 18 19 20 19 20 26 26 22 19 19 19 18 13
11 9 9 11 7 2 2 8 12 10 15 16 12 10 12 13 17 18 14 13 12 10 9 11 12 14 15 15 16 18 17 19 19 19 18 19 27 24 20 19 22 22 16 7
14 15 13 12 15 19 17 22 12 15 14 13 9 12 14 16 19 19 15 12 11 9 9 10 12 13 15 15 16 15 16 18 18 19 17 21 27 22 19 19 21 17 13 9
16 5 5 16 17 21 18 17 16 16 7 11 12 15 17 17 19 18 14 12 12 9 7 8 10 13 14 15 15 15 15 17 17 17 16 21 25 20 18 18 19 16 14 9
18 12 10 12 15 9 13 11 8 11 10 13 19 22 20 17 19 18 13 12 11 9 7 7 9 11 13 14 14 15 14 15 17 15 15 19 23 18 16 14 15 18 16 13
Wind_Direction
206 248 246 40 8 350 345 312 274 282 3 284 283 290 308 291 260 258 253 227 227 222 207 191 201 202 214 233 269 290 289 295 302 306 301 304 300 299 297 296 292 288 286 275
221 221 60 31 346 308 293 287 286 327 210 261 279 287 281 278 289 283 262 223 221 216 211 198 211 223 243 264 282 293 292 294 296 299 295 294 296 298 296 294 289 291 286 292
313 93 100 278 230 320 281 305 340 319 315 282 265 264 222 145 297 272 263 254 223 222 210 205 225 238 261 278 287 292 293 291 294 290 300 300 294 298 298 296 296 297 298 301
113 104 244 253 246 331 313 13 309 296 296 294 25 297 132 99 174 192 250 246 243 226 214 222 228 242 264 282 289 287 289 299 306 293 304 300 312 306 300 301 296 294 296 293
118 178 214 257 44 342 358 321 294 293 285 282 210 279 117 161 99 70 213 230 230 245 229 227 242 248 293 289 295 299 300 309 311 316 318 314 307 301 301 297 295 293 293 296
82 23 290 19 74 280 300 297 286 251 244 234 89 355 75 41 21 8 47 351 242 238 243 236 230 302 287 285 298 301 303 305 308 309 311 311 309 306 303 300 301 303 298 296
172 176 117 269 284 188 334 347 315 263 216 332 87 303 59 70 44 19 16 24 225 237 249 230 278 277 285 293 295 301 304 305 305 307 307 306 305 304 304 304 302 299 298 296
234 152 182 107 352 338 309 329 321 323 321 328 206 312 83 80 58 44 356 335 308 252 316 285 275 283 290 299 301 302 306 307 307 308 306 307 304 299 297 293 291 292 293 292
276 123 95 82 293 310 353 324 1 289 266 259 307 100 133 140 178 203 317 341 312 281 277 270 275 283 296 302 307 307 309 309 308 308 309 308 308 308 307 304 292 292 292 291
353 299 134 116 252 194 282 350 257 211 291 313 341 308 79 55 22 21 345 308 246 263 275 274 286 292 301 305 309 310 309 310 311 312 311 305 304 308 308 308 297 291 291 292
286 251 267 233 224 357 305 254 206 312 295 313 300 26 36 29 14 336 318 313 320 265 274 287 298 304 305 306 310 311 313 313 315 316 313 312 307 311 305 300 299 295 290 293
72 303 292 304 80 319 293 301 328 297 290 270 307 296 58 7 330 341 319 332 339 302 303 304 306 311 309 311 313 315 315 315 317 317 317 316 312 307 302 296 300 303 302 296
174 229 280 291 159 186 245 318 275 290 289 273 290 284 192 357 339 334 313 289 270 279 297 308 312 315 315 316 318 318 317 317 317 317 319 317 313 309 307 302 303 307 304 305
30 268 269 283 313 328 296 290 268 251 275 284 284 324 323 344 350 341 305 294 297 313 315 316 315 316 317 319 320 320 317 317 315 316 317 314 316 317 313 308 310 303 311 308
254 264 276 270 290 286 281 284 281 268 252 263 286 305 312 7 334 337 331 319 309 313 317 319 317 317 319 321 321 321 317 317 315 314 313 316 314 313 314 314 311 316 313 303
197 268 271 284 269 261 278 278 272 259 269 274 279 283 54 340 316 321 314 311 317 318 321 320 318 318 321 322 323 323 320 318 315 315 311 316 316 318 319 311 322 323 321 317
206 267 239 276 301 295 280 287 255 242 249 265 276 326 335 321 328 331 318 318 322 322 321 317 318 319 321 322 324 324 319 318 316 314 317 321 322 321 321 327 331 330 328 322
223 233 276 270 278 271 68 355 348 307 297 283 270 265 308 317 325 310 309 328 327 323 317 313 315 318 320 322 325 322 320 321 319 320 327 328 328 328 329 331 336 330 331 331
230 242 275 267 270 307 312 291 212 255 273 297 282 281 315 329 325 6 129 297 322 319 313 310 313 317 320 323 323 325 320 321 323 327 328 328 329 335 339 336 333 338 340 341
226 236 262 278 280 277 285 88 20 326 274 328 149 282 305 323 300 53 354 308 310 308 306 306 312 320 321 323 326 323 321 324 327 324 331 331 332 343 340 339 341 342 343 346
250 240 235 245 255 277 287 251 120 271 282 297 282 293 296 301 317 319 303 301 300 304 306 306 318 320 323 326 326 322 322 326 322 330 338 333 344 346 344 343 346 347 348 344
226 246 338 253 291 284 63 108 248 283 310 299 291 292 298 304 308 302 287 290 291 297 303 306 314 320 326 329 322 325 325 325 333 337 343 335 349 351 350 349 350 351 340 342
250 209 279 302 207 343 61 284 303 276 281 291 294 294 303 310 312 308 296 279 279 289 297 310 315 324 326 330 324 329 330 332 335 347 338 344 353 357 1 3 358 353 359 10
269 261 255 266 269 285 284 285 262 272 270 267 280 298 301 303 313 309 294 273 271 283 295 307 320 323 328 326 328 330 332 332 340 346 340 348 357 3 10 8 8 14 18 57
289 326 229 246 272 277 282 304 356 275 255 249 279 291 292 291 300 305 285 264 267 274 288 308 322 324 327 329 334 335 332 342 339 347 346 344 359 9 16 24 17 27 37 56
280 278 279 276 304 326 298 332 332 319 307 286 287 291 291 288 295 292 264 250 251 262 277 305 321 324 330 331 338 335 338 347 342 349 349 348 2 13 26 41 39 40 50 71